Location: Hamilton
(37.7830°S, 175.2830°E)
Time: 05:32:56
(UTC+13:00)

Cosmos 1486 Rocket - Pass Details

Date: 24 January 2019
Orbit: 759 x 783 km, 74.1° (Epoch: 18 February)

Event Time Altitude Azimuth Distance (km) Brightness Sun altitude
Exits shadow 22:36:54 12° 340° (NNW) 2,171 6.1 -19.8°
Maximum altitude 22:41:48 83° 252° (WSW) 782 4.0 -20.5°
Drops below altitude 10° 22:47:06 10° 164° (SSE) 2,333 6.9 -21.2°
Sets 22:49:31 0° 162° (SSE) 3,270 7.7 -21.5°
